This is the latest recevied weather packets stored in our database for station/object SP7WMI-13. If no packets are shown the sender has not sent any weather packets the latest 10 day(s).
| Time | Temp. | Humidity | Pressure | Rain* | Wind** | Luminosity | Snow |
|---|---|---|---|---|---|---|---|
| 1777392547 | 12.78° C | 32% | 1021.8 hPa | 0 mm | - | - | - |
| 1777391644 | 11.11° C | 33% | 1021.9 hPa | 0 mm | - | - | - |
| 1777390741 | 11.11° C | 33% | 1022 hPa | 0 mm | - | - | - |
| 1777389838 | 11.67° C | 33% | 1022 hPa | 0 mm | - | - | - |
| 1777388935 | 12.22° C | 32% | 1022 hPa | 0 mm | - | - | - |
| 1777388032 | 12.78° C | 31% | 1022.1 hPa | 0 mm | - | - | - |
| 1777387129 | 13.33° C | 32% | 1022.1 hPa | 0 mm | - | - | - |
| 1777386226 | 13.33° C | 33% | 1022.4 hPa | 0 mm | - | - | - |
| 1777385323 | 13.33° C | 32% | 1022.4 hPa | 0 mm | - | - | - |
| 1777384420 | 11.67° C | 33% | 1022.6 hPa | 0 mm | - | - | - |
| 1777383517 | 12.78° C | 31% | 1022.5 hPa | 0 mm | - | - | - |
| 1777382614 | 12.22° C | 33% | 1022.6 hPa | 0 mm | - | - | - |
| 1777381711 | 12.78° C | 32% | 1022.7 hPa | 0 mm | - | - | - |
| 1777380807 | 13.33° C | 32% | 1022.9 hPa | 0 mm | - | - | - |
| 1777379904 | 13.33° C | 32% | 1022.9 hPa | 0 mm | - | - | - |
| 1777379002 | 13.33° C | 32% | 1023 hPa | 0 mm | - | - | - |
| 1777378098 | 12.22° C | 33% | 1023.1 hPa | 0 mm | - | - | - |
| 1777377195 | 11.67° C | 35% | 1023.2 hPa | 0 mm | - | - | - |
| 1777376292 | 10.56° C | 36% | 1023.3 hPa | 0 mm | - | - | - |
| 1777375389 | 10° C | 35% | 1023.3 hPa | 0 mm | - | - | - |
| 1777374486 | 10.56° C | 36% | 1023.3 hPa | 0 mm | - | - | - |
| 1777373583 | 10.56° C | 39% | 1023.5 hPa | 0 mm | - | - | - |
| 1777372680 | 9.44° C | 39% | 1023.6 hPa | 0 mm | - | - | - |
| 1777371777 | 8.89° C | 41% | 1023.6 hPa | 0 mm | - | - | - |
| 1777370874 | 8.89° C | 39% | 1023.7 hPa | 0 mm | - | - | - |
* Rain since midnight (hover to see other rain measurements)
** Current wind speed in m/s (hover to see current wind gust speed)